Tracking 32407 objects as of 6-Dec-2025
HD Live streaming from Space Station
objects crossing your sky now

QIANFAN-53

Track QIANFAN-53 now!
10-day predictions


NORAD ID: 62254
Int'l Code: 2024-232T
Perigee: 1,065.6 km
Apogee: 1,086.0 km
Inclination: 89.0 °
Period: 106.6 minutes
Semi major axis: 7446 km
RCS: Unknown
Launch date: December 5, 2024
Source: People's Republic of China (PRC)
Launch site: Taiyaun Space Center, China (TSC)
Your satellite tracking list
Your tracking list is empty




NASA's NSSDC Master Catalog

Two Line Element Set (TLE):
1 62254U 24232T   25339.22805441  .00000176  00000-0  25399-3 0  9995
2 62254  89.0037  41.9732 0013671 207.5160 152.5269 13.50977057 66896
Source of the keplerian elements: AFSPC